Wind_Speed
38 38 38 39 39 40 40 40 40 40 40 41 41 41 41 41 41 42 43 44 45 47 48 50 51 53 55 56 57 58 59 60 61 63 64 65 66 67 68 69 69 69 67 65 64 67 71 73 72 72 72 73 74 74 77 80 80 81 81 79 78 78 80 81 82 83 85 86 86 85 85 86 86 87 87 87 87 88 89 87 86 84 82 79 77
39 38 38 39 39 39 40 40 40 40 40 41 41 42 41 41 41 42 43 45 46 47 49 51 53 54 56 58 59 60 60 61 62 64 65 66 67 68 69 69 68 66 64 63 66 70 72 71 71 72 74 75 77 79 82 84 84 85 84 82 80 81 82 83 84 83 84 85 86 86 87 87 87 87 87 88 88 88 88 86 85 83 80 77 75
40 39 39 39 40 41 41 41 41 41 41 41 42 42 42 41 42 43 44 46 47 49 50 52 54 56 57 59 60 61 61 62 63 64 66 67 69 69 69 68 66 65 64 65 70 73 72 72 73 75 76 77 80 83 85 86 88 88 86 84 84 85 84 84 84 84 84 85 86 86 86 87 87 87 88 88 88 88 87 85 83 80 78 75 73
41 40 41 42 43 44 44 43 43 42 42 42 42 42 42 42 43 44 46 47 48 50 52 54 56 57 59 60 61 62 62 63 64 66 67 69 70 69 68 66 66 66 66 69 72 73 73 75 76 77 78 80 83 85 87 89 90 89 87 86 86 86 84 84 84 85 86 86 86 86 86 86 87 87 88 89 88 87 86 84 81 78 76 74 73
42 42 43 45 45 46 46 45 44 43 42 43 43 43 43 44 45 46 47 49 50 52 54 55 57 58 60 61 62 62 63 64 66 67 68 69 70 68 65 65 67 68 69 71 72 73 76 78 78 79 81 83 85 87 89 90 90 89 88 88 86 85 84 84 85 86 87 86 86 86 86 87 87 88 89 88 88 86 84 82 79 76 74 74 73
44 45 46 47 47 46 46 45 44 43 43 44 44 45 45 46 47 48 49 51 52 54 55 57 58 60 61 62 62 64 65 66 67 68 69 69 68 66 65 67 69 70 71 71 72 75 78 80 80 81 83 85 86 87 89 90 90 90 88 86 84 84 84 85 86 87 88 88 87 86 87 87 87 88 88 88 87 85 82 79 76 74 73 73 72
46 47 48 48 47 46 46 45 45 44 44 45 46 47 47 48 49 50 51 52 53 55 56 58 59 60 62 62 64 66 66 67 68 68 69 69 67 66 67 69 70 70 71 73 74 78 80 81 81 83 84 86 86 86 87 89 90 88 86 84 83 83 84 86 87 88 88 88 87 86 87 87 87 87 88 88 86 83 81 78 75 73 73 73 71
46 47 47 48 47 46 45 45 45 45 45 46 47 48 49 49 50 51 52 53 53 54 56 58 59 61 62 63 65 66 67 68 68 69 70 69 68 68 69 70 71 72 74 76 78 79 80 81 82 84 85 85 84 84 86 88 88 85 83 82 83 84 85 86 88 88 89 87 86 86 87 86 86 87 87 86 83 82 81 78 76 74 73 72 71
45 46 46 46 45 44 44 45 45 45 46 47 48 49 50 51 52 52 53 53 53 54 56 58 59 60 62 63 65 66 67 68 68 69 70 70 70 70 71 72 73 75 76 77 79 80 81 83 84 84 84 82 82 84 86 86 84 82 82 82 83 84 86 87 88 88 87 86 85 85 86 85 85 86 85 83 81 80 79 78 76 75 74 72 72
43 44 44 44 44 43 44 44 45 46 48 49 50 51 52 52 53 53 53 53 54 55 56 57 58 60 61 62 63 64 66 67 68 70 71 71 72 72 72 73 74 74 75 78 81 83 84 84 83 83 82 82 83 84 84 83 82 81 82 82 83 85 87 87 87 87 86 85 84 85 85 84 84 84 82 81 80 79 78 77 76 75 74 73 72
42 42 43 43 43 43 44 45 47 48 49 51 52 52 53 53 53 53 53 53 54 55 56 57 58 59 60 61 62 63 65 67 68 68 70 71 72 71 71 72 74 76 78 81 83 84 84 83 82 82 82 83 84 83 82 81 81 81 82 84 85 86 86 86 86 85 84 83 83 84 84 82 82 81 80 79 79 79 78 77 77 77 76 75 73
42 42 43 43 44 45 46 47 49 50 51 52 52 53 52 52 52 52 52 52 54 56 57 58 60 62 62 63 64 65 66 67 68 69 71 72 72 71 71 74 76 78 81 82 83 83 82 82 82 82 83 83 82 81 80 80 81 83 84 85 86 85 85 85 85 84 83 83 83 83 81 81 81 79 78 78 78 78 77 78 78 78 78 76 74
44 44 44 45 46 47 48 49 50 51 51 51 51 52 51 50 50 50 50 52 55 58 60 62 63 65 66 68 69 68 68 69 70 71 72 72 71 71 73 75 77 79 81 82 82 82 82 82 83 83 83 81 79 79 80 81 83 84 85 86 85 84 84 84 84 83 82 82 81 80 79 80 79 78 77 78 78 78 78 78 79 79 78 77 75
46 47 47 48 48 49 49 50 49 49 49 49 50 50 50 49 50 50 50 51 53 56 59 61 63 65 68 70 70 69 68 68 69 70 71 71 70 71 73 76 77 79 80 81 82 83 83 83 83 81 80 79 79 80 81 82 84 86 86 85 84 83 84 84 83 81 80 79 79 78 78 78 78 77 77 78 78 79 79 79 80 80 78 77 76
47 48 48 49 48 48 47 47 47 47 48 48 48 49 49 49 50 51 51 52 54 55 57 59 62 65 67 68 68 67 67 68 69 71 71 71 72 74 75 77 78 80 81 83 84 84 83 81 80 79 78 78 79 81 83 84 86 86 85 84 84 84 84 83 80 78 77 79 79 78 77 77 77 77 77 79 79 80 81 81 80 79 78 77 76
47 47 47 46 46 45 45 45 46 46 47 47 47 48 49 50 51 52 53 54 56 57 57 58 60 62 64 66 67 66 65 67 70 72 73 74 75 76 77 78 80 82 84 85 84 81 79 79 79 78 78 79 80 83 84 86 86 85 85 84 84 83 81 77 75 76 78 80 79 78 77 77 78 78 79 80 81 81 83 82 80 79 79 77 75
47 47 46 46 46 46 46 46 45 45 45 46 46 48 49 51 53 55 56 57 59 59 58 59 61 62 65 67 68 66 66 69 72 73 75 76 77 77 79 80 82 84 84 81 79 78 78 78 78 78 78 80 82 84 86 86 86 85 84 82 81 79 76 73 74 77 79 79 78 78 78 78 79 80 81 82 83 83 83 82 80 79 79 77 76
49 48 48 47 47 47 45 44 43 43 44 46 48 50 53 55 57 58 59 60 60 58 59 62 63 64 66 68 68 69 71 73 74 75 76 77 79 80 82 83 83 82 79 77 77 77 77 77 77 78 80 82 84 85 86 86 84 82 80 79 79 78 74 72 75 78 78 78 78 78 79 80 81 82 83 83 84 84 84 81 80 79 79 77 76
50 49 48 46 45 43 42 42 43 45 48 50 52 54 56 58 59 61 62 63 61 59 60 62 62 63 65 66 67 70 73 75 76 77 78 80 82 83 83 82 80 78 76 75 76 76 76 77 79 81 83 84 85 84 83 82 80 79 78 79 80 77 74 74 76 77 76 77 78 79 80 81 82 83 84 83 84 84 83 82 80 79 79 77 76
49 47 45 44 42 42 42 45 48 50 52 54 55 57 58 59 61 62 64 64 62 61 61 61 62 64 65 66 69 72 75 76 77 78 80 81 82 81 80 78 76 74 74 75 76 77 78 80 82 83 83 83 82 81 79 79 79 79 80 80 79 76 75 76 77 77 77 78 79 80 81 82 83 84 84 84 83 83 83 81 80 79 78 77 75
47 46 44 43 43 45 47 50 53 55 56 57 58 59 59 61 62 64 65 65 64 63 62 62 63 65 66 67 70 73 76 77 78 79 79 80 79 78 76 74 73 74 76 77 79 80 81 81 82 82 81 81 80 79 79 79 80 80 79 78 77 76 77 78 78 79 80 80 81 82 83 83 83 84 84 83 83 82 81 81 79 78 77 76 75
47 46 45 46 48 50 53 56 57 58 59 60 60 61 61 62 63 64 65 65 65 64 64 64 65 67 68 70 72 74 75 76 77 78 78 77 76 75 74 75 77 79 80 80 81 81 81 81 82 82 82 82 81 81 80 80 79 79 78 77 77 78 79 80 80 81 82 83 84 84 84 84 84 83 83 82 81 80 80 79 78 77 77 76 76
48 48 49 51 54 56 57 58 60 61 62 62 62 63 63 63 64 65 66 66 66 65 65 64 65 67 70 72 73 74 75 76 77 77 76 75 75 76 77 79 81 82 81 81 82 83 84 85 85 86 86 85 84 82 81 79 78 78 77 78 79 80 81 83 84 84 85 86 87 86 86 85 85 84 83 82 81 80 78 78 78 78 77 77 77
51 52 54 56 57 58 59 60 62 63 64 64 64 64 64 64 65 66 66 66 66 65 64 65 66 68 71 72 74 76 77 77 76 76 76 77 79 81 83 84 84 85 85 85 86 87 88 88 88 87 86 85 83 81 80 79 78 78 78 79 81 82 84 85 87 88 89 89 89 89 88 87 86 85 83 82 80 79 78 78 78 79 78 79 78
55 56 57 58 59 60 62 63 64 65 65 65 65 64 64 65 65 66 67 67 66 65 65 65 66 67 69 71 73 75 76 76 77 78 80 83 85 86 87 88 88 89 89 89 89 89 89 88 87 86 84 83 82 80 79 78 78 79 80 81 83 85 87 89 90 91 92 91 91 90 89 87 86 84 82 81 80 79 79 79 80 80 80 80 80
57 58 59 60 62 64 65 66 66 66 65 64 64 64 64 65 66 66 66 66 64 63 62 63 64 66 69 70 72 74 76 78 81 83 85 87 88 88 89 89 89 89 89 88 88 88 87 86 85 84 82 81 81 80 79 79 79 81 82 84 86 88 90 92 93 93 93 92 91 89 88 86 84 83 81 81 80 80 81 81 82 82 82 81 81
58 60 61 63 64 65 66 66 66 65 64 64 64 64 64 65 66 66 65 64 62 61 61 63 65 67 69 71 73 76 78 81 84 85 87 87 88 88 88 87 87 87 86 86 86 85 84 83 82 82 81 80 80 80 80 80 81 83 86 88 90 92 94 95 95 94 93 91 90 88 86 85 83 82 81 81 80 81 81 82 82 82 82 82 81
60 61 63 63 64 64 64 64 64 64 64 64 64 65 65 65 65 65 63 62 61 61 61 63 64 67 69 71 74 77 79 81 83 84 84 85 85 85 84 84 84 84 83 83 82 81 81 80 79 78 78 78 78 80 81 82 85 87 89 92 94 95 95 95 94 93 91 89 88 86 84 83 82 81 80 80 80 80 81 82 82 82 83 82 81
61 62 62 63 63 63 63 63 63 63 64 64 65 65 65 65 64 63 62 62 62 62 63 65 66 68 70 72 74 76 78 79 80 80 81 81 81 81 81 81 81 81 81 80 79 79 78 77 77 77 77 78 80 82 84 86 89 91 93 94 94 94 93 92 91 89 87 86 84 83 82 81 81 80 80 79 79 80 81 81 82 82 82 81 79
60 60 61 61 61 62 62 62 63 63 64 64 64 64 63 63 62 62 62 63 63 64 66 67 68 70 71 72 74 75 76 77 77 78 78 78 78 79 79 79 79 79 78 78 77 77 77 77 77 78 80 82 84 86 88 91 92 93 93 93 92 90 88 87 85 83 82 81 81 80 80 80 80 79 80 80 80 80 80 81 81 80 80 79 78
59 59 60 60 61 61 62 62 62 62 62 62 62 62 62 62 62 63 64 65 66 67 68 69 70 71 72 73 74 75 75 76 76 76 77 77 77 78 78 78 78 77 77 77 77 77 77 78 80 81 83 85 87 90 92 93 93 92 90 88 86 84 82 81 80 78 78 78 78 78 78 78 78 78 78 78 78 78 78 79 80 80 80 79 78
58 59 59 59 60 60 61 61 61 62 62 62 62 63 63 64 65 66 67 68 68 69 70 71 72 72 73 73 74 74 74 74 75 75 76 76 77 77 77 77 77 77 78 78 79 80 81 82 83 85 87 89 91 92 93 92 90 88 85 83 81 79 78 77 77 76 76 76 76 76 76 75 75 75 76 76 76 76 76 77 78 78 78 78 76
57 57 57 58 59 59 60 61 62 62 63 63 64 64 65 66 67 68 69 70 70 71 71 71 72 72 72 72 72 73 73 74 74 75 76 76 76 77 77 77 78 78 78 80 81 82 84 85 87 89 90 92 92 92 91 89 86 84 81 79 78 77 77 77 76 77 77 76 76 76 75 75 75 75 75 76 75 75 74 74 74 75 75 73 72
56 56 57 58 59 60 61 62 62 63 63 64 65 66 67 68 69 69 70 70 70 70 70 70 70 70 70 71 72 72 73 74 74 75 76 76 76 76 77 77 78 79 80 81 82 84 86 88 89 91 91 92 91 89 87 84 82 80 79 78 77 77 77 77 77 77 77 77 77 76 76 77 77 76 76 75 74 73 72 72 71 71 70 69 67
56 57 58 59 60 61 61 62 62 63 64 65 66 67 68 69 69 69 69 68 68 68 68 69 69 70 70 71 72 73 73 74 74 75 75 76 76 76 77 78 79 80 81 82 84 86 88 89 90 91 90 89 87 85 82 81 79 78 78 77 77 77 77 77 77 77 76 76 76 76 76 76 75 75 74 73 72 71 69 68 67 66 66 65 63
57 58 59 60 61 61 62 63 64 65 66 67 68 68 68 68 67 67 67 67 67 68 68 69 69 70 70 71 72 72 73 74 74 74 74 75 75 76 77 77 78 80 81 83 86 87 88 89 89 89 87 85 83 81 79 78 78 77 77 77 77 77 77 77 76 75 75 74 74 74 74 73 73 72 71 70 68 67 66 64 63 63 62 61 60
58 59 60 61 62 62 63 65 65 66 67 67 67 67 66 66 66 66 66 66 67 67 68 68 69 69 70 71 71 72 72 72 72 72 73 73 74 75 76 77 78 80 83 85 86 87 88 88 87 85 83 81 80 79 78 78 77 77 77 77 77 76 76 75 75 74 73 72 72 72 71 70 69 67 66 64 63 62 62 61 60 59 59 59 58
60 61 62 63 63 64 64 65 65 66 66 65 65 64 64 64 65 65 66 66 67 67 68 68 68 69 69 70 70 70 70 70 71 71 72 72 73 74 75 77 79 81 84 85 86 87 87 85 83 81 79 79 78 78 77 77 76 76 76 76 75 75 74 73 72 71 70 70 70 69 67 65 63 62 61 61 60 59 58 58 58 57 57 56 55
62 63 63 63 63 63 63 64 64 63 63 63 63 63 63 64 65 65 65 66 66 66 67 67 68 68 68 68 68 68 69 69 70 70 71 72 72 74 76 78 81 83 84 85 86 86 85 83 80 78 78 78 78 77 76 76 75 75 74 74 73 72 71 70 68 68 67 66 64 62 60 58 58 58 58 57 57 56 56 56 55 53 51 50 49
62 62 62 62 62 62 61 61 61 61 61 61 62 62 63 64 64 64 64 65 65 65 66 66 66 66 65 65 66 67 68 68 69 70 71 72 73 75 77 80 83 84 86 86 86 85 83 80 78 77 78 78 77 76 75 74 74 73 72 70 69 68 67 66 65 64 62 58 55 54 54 55 56 56 55 55 55 54 53 51 50 47 45 43 41
61 60 60 59 59 59 59 59 59 59 60 61 62 62 62 63 63 63 63 64 64 64 64 64 64 63 63 64 65 67 68 69 69 70 71 72 74 77 80 82 85 86 87 87 86 84 81 79 78 78 78 77 76 75 74 73 71 70 68 67 66 64 63 62 60 57 53 50 49 50 52 53 53 53 53 53 51 48 46 44 42 40 37 34 32
58 57 57 57 57 57 57 58 58 59 60 61 61 61 61 62 62 62 63 63 63 62 62 62 62 62 63 64 66 67 68 69 70 71 72 74 76 79 82 85 87 88 89 88 86 83 80 79 78 78 77 76 74 73 72 70 68 67 65 64 62 61 59 56 52 48 45 44 46 48 50 50 50 51 50 47 44 41 39 37 34 30 27 24 23
55 55 55 56 56 57 57 58 59 60 60 60 60 61 61 61 62 62 62 62 61 60 60 60 61 62 64 65 66 67 68 69 70 72 74 77 79 82 84 87 89 90 90 88 85 82 80 79 79 78 76 74 72 70 69 67 65 63 62 60 58 55 52 48 44 41 41 42 45 46 47 47 47 47 44 40 37 34 32 29 25 22 19 16 15
54 55 55 56 57 57 58 59 59 59 60 60 60 60 61 61 61 61 60 59 59 59 60 61 62 63 65 65 66 67 69 70 72 74 77 79 82 84 87 89 91 92 91 88 84 81 80 80 78 77 74 72 69 67 65 63 61 59 57 55 53 50 45 41 37 37 38 41 43 44 44 44 43 42 38 34 31 29 26 23 19 16 13 11 8
55 55 56 57 58 58 58 59 59 59 59 59 59 60 60 60 59 59 58 58 59 60 61 62 63 64 65 66 67 68 70 72 74 77 79 81 83 86 89 91 93 93 91 87 83 81 80 79 76 74 71 68 66 63 61 59 57 54 52 50 48 45 40 36 34 35 36 38 40 41 40 40 39 36 33 29 27 24 22 19 16 13 11 9 6
56 56 57 57 57 58 58 58 58 58 58 59 59 59 59 58 58 57 58 59 60 61 62 64 65 66 66 67 68 70 72 74 77 79 81 83 85 88 90 92 94 94 91 86 83 81 79 77 73 70 67 64 62 59 57 55 52 50 49 47 44 40 36 33 32 33 34 35 36 37 36 35 34 32 29 26 23 21 18 16 13 11 9 7 5
56 56 57 57 56 56 56 56 57 58 58 59 59 58 58 57 58 58 59 61 62 63 64 65 66 67 68 69 70 72 74 77 79 81 83 85 87 89 91 93 95 93 90 86 83 81 77 73 69 66 62 60 57 55 53 51 49 48 46 45 41 37 33 31 31 31 31 32 33 33 32 31 30 28 25 23 20 18 16 14 12 10 8 6 4
56 56 55 55 55 55 56 56 57 58 58 58 58 58 58 58 59 60 61 63 64 65 66 67 68 68 69 71 72 74 77 79 81 83 84 86 88 90 92 94 95 92 88 85 82 79 74 69 65 61 58 55 53 51 49 47 46 46 44 42 38 33 30 29 29 29 29 29 29 29 29 27 26 24 22 20 18 16 14 12 10 8 6 4 3
54 54 54 54 54 55 56 57 58 58 58 58 58 58 59 60 61 62 63 65 66 67 67 68 69 70 71 73 75 77 79 81 83 84 86 88 90 91 93 95 94 90 86 83 80 75 70 65 60 56 53 51 49 48 46 45 44 44 42 39 34 31 29 28 28 28 27 26 26 26 25 24 22 21 19 18 16 14 12 10 9 7 5 4 3
53 53 54 54 55 56 57 58 58 58 58 59 59 60 61 62 63 64 65 66 67 68 69 70 71 72 73 75 77 79 81 83 84 86 88 89 91 93 95 95 92 88 84 80 76 70 65 60 55 52 49 48 47 46 45 44 43 42 40 36 31 29 27 27 27 27 26 25 24 23 22 21 19 18 17 16 14 13 11 10 8 7 5 4 3
53 54 55 56 57 57 58 58 58 58 59 60 61 62 63 64 65 66 67 68 69 70 71 71 73 74 76 78 80 82 84 85 86 87 89 90 92 94 95 93 89 85 81 76 70 65 60 55 51 48 46 45 45 45 44 42 41 40 38 33 30 27 26 25 26 26 26 25 23 22 20 19 18 17 16 15 14 12 11 10 9 7 5 4 3
Wind_Direction
284 284 284 284 285 286 286 286 286 286 285 284 284 283 282 282 282 282 282 281 281 280 280 280 279 279 279 280 281 281 282 283 284 285 286 287 288 288 290 291 292 294 296 297 297 297 298 299 299 300 300 300 300 301 303 305 306 306 305 303 303 303 303 302 301 301 303 304 305 306 307 309 309 310 310 311 312 312 312 313 314 315 316 317 317
285 285 285 286 287 288 288 288 287 287 286 285 284 283 283 283 282 282 282 281 281 281 280 280 280 280 280 281 281 282 282 283 285 286 287 287 288 289 290 292 294 297 298 297 296 297 298 299 300 301 301 300 300 302 304 305 305 305 305 304 303 304 303 302 301 301 303 305 306 307 308 308 309 309 310 311 312 312 312 313 314 316 317 317 317
285 285 286 288 289 290 290 289 288 287 287 286 285 284 284 284 284 284 283 282 281 281 280 280 280 280 280 281 281 282 284 285 286 287 287 288 288 289 291 294 297 298 296 294 295 297 299 301 302 302 301 300 301 303 304 304 305 305 305 304 303 303 302 301 301 303 304 305 306 307 307 308 309 310 311 311 311 312 313 313 315 316 317 317 317
284 285 287 289 291 292 291 290 289 288 287 286 285 284 284 284 284 284 284 283 282 281 280 280 280 280 281 282 283 284 285 285 286 287 287 288 289 291 294 296 297 296 295 294 296 298 300 301 301 300 300 301 302 303 304 304 304 304 304 303 303 302 302 302 302 304 304 305 305 306 307 308 309 310 310 310 311 312 312 313 315 316 317 317 316
284 285 287 289 290 291 291 291 290 288 287 286 286 286 286 286 286 285 285 284 283 282 281 281 281 281 282 283 284 285 286 287 288 288 288 289 291 294 295 295 294 295 295 296 298 299 300 300 299 299 299 301 302 303 302 302 302 303 303 302 302 302 302 302 303 304 304 304 305 306 306 308 309 309 309 310 311 311 312 314 316 317 316 316 315
286 286 287 288 289 289 290 289 288 286 286 286 286 287 287 287 287 286 285 284 284 283 282 282 283 284 284 286 287 288 289 289 288 288 290 292 294 295 293 292 293 295 296 298 298 299 299 299 298 298 299 300 301 301 300 299 300 301 302 302 302 302 302 302 303 303 304 304 305 305 306 307 308 308 309 309 310 311 312 314 316 316 315 315 314
285 285 285 286 287 287 286 286 285 284 284 285 286 287 288 288 287 286 285 285 285 285 285 285 285 285 286 287 288 288 287 287 288 290 294 295 295 293 291 292 294 296 297 297 298 298 297 297 298 299 299 299 298 297 297 297 299 300 301 302 302 302 302 302 302 303 303 303 304 305 306 307 308 308 309 309 310 311 313 314 315 314 314 313 312
283 283 284 284 284 284 283 282 282 283 284 285 286 287 287 286 286 285 285 285 285 285 285 285 285 286 287 287 287 286 286 288 291 294 295 294 292 291 292 294 296 297 297 297 297 297 296 297 298 298 297 296 295 295 295 296 298 300 300 300 300 301 301 301 302 302 302 302 303 305 306 307 308 308 308 309 310 312 313 314 314 313 313 312 312
281 281 282 282 282 281 280 280 281 282 283 284 285 285 285 284 283 283 283 284 284 284 284 285 285 286 286 286 286 287 289 291 292 294 293 292 291 293 295 297 298 298 297 297 296 296 296 297 297 296 294 294 293 293 294 296 297 298 298 299 299 300 300 300 301 301 301 302 304 305 307 308 308 308 308 310 311 312 313 313 313 312 311 311 311
278 279 279 279 279 279 278 278 279 280 280 281 282 282 282 281 281 281 281 281 282 283 283 283 284 285 285 286 286 287 288 290 291 292 292 292 293 294 296 297 297 296 296 295 294 294 295 295 294 293 293 292 292 292 294 295 296 296 297 298 298 299 299 300 300 300 301 303 305 306 307 308 307 307 309 310 311 312 312 311 311 311 310 310 310
276 276 276 276 276 276 275 275 276 277 278 279 279 279 279 279 279 280 280 281 282 282 282 282 283 283 283 284 285 286 287 289 290 291 291 291 292 294 295 295 294 293 293 293 293 293 293 293 293 292 291 291 291 293 294 294 294 295 296 297 298 299 299 299 299 300 302 304 306 307 307 306 307 308 310 310 310 311 311 310 310 310 310 310 310
276 276 275 275 274 274 273 274 275 276 278 279 279 279 279 279 279 280 281 282 282 282 283 283 283 284 284 283 284 285 287 288 289 290 290 290 292 293 293 292 292 293 293 293 293 293 293 292 291 290 290 291 292 293 293 293 293 294 295 297 298 298 298 299 301 302 304 305 306 306 306 306 308 309 310 309 310 310 309 309 309 309 309 309 310
278 277 276 275 274 274 274 275 277 278 278 279 279 279 279 279 280 280 281 281 282 283 284 284 284 285 284 283 282 283 285 287 288 289 290 292 293 292 291 293 294 294 293 292 292 292 291 290 288 289 290 291 292 292 291 292 293 294 296 297 297 298 299 301 303 304 305 305 305 305 306 307 309 310 309 309 309 309 308 309 309 309 308 309 309
281 280 279 277 276 276 277 278 278 278 278 279 279 280 281 281 282 283 283 282 283 283 283 283 284 284 285 284 283 283 285 287 288 290 291 292 290 290 291 293 293 291 291 291 291 290 289 287 288 289 291 291 291 290 291 292 293 295 296 297 298 299 301 303 304 304 304 304 304 306 307 308 309 309 309 308 308 308 308 308 308 308 307 307 307
282 281 280 280 280 279 279 279 279 280 280 280 281 282 283 284 285 286 286 286 285 284 282 282 283 285 286 286 285 285 286 287 288 290 291 289 288 289 290 290 288 288 289 290 289 288 287 287 288 289 290 290 290 291 292 293 294 295 296 298 300 301 303 303 303 303 304 304 305 307 308 308 308 308 308 307 307 307 307 307 307 307 306 306 306
283 282 282 282 282 281 281 281 281 282 282 283 284 286 287 288 290 290 290 289 288 286 285 283 283 284 286 285 283 283 284 286 289 292 291 288 288 287 287 287 288 290 290 290 289 287 286 287 288 289 289 290 291 291 293 294 295 296 298 300 301 302 303 304 304 304 305 306 307 308 308 308 307 307 307 306 307 306 306 306 307 305 304 304 304
283 283 283 282 282 282 283 283 284 285 286 288 290 291 292 292 293 292 291 290 289 288 288 288 286 286 287 286 284 283 285 289 291 290 287 286 286 286 287 289 290 291 290 288 286 285 285 287 288 289 290 290 291 293 294 295 297 299 300 301 302 303 306 306 305 305 306 307 308 308 308 308 307 307 306 306 306 305 305 306 305 304 303 303 303
282 282 282 282 283 284 285 286 288 289 291 293 293 294 294 293 293 292 291 290 290 288 287 286 285 284 285 286 286 286 287 288 286 284 284 286 287 287 288 289 288 287 286 284 284 285 286 288 289 290 291 291 293 294 296 298 299 301 302 303 304 307 308 306 304 305 306 307 307 307 307 307 307 306 306 306 305 305 305 305 304 303 302 302 302
280 281 281 282 282 283 285 288 290 292 294 294 294 293 293 292 292 291 291 291 289 286 284 283 283 283 284 285 285 284 284 283 283 284 286 286 286 286 286 285 285 284 283 283 284 286 288 289 290 291 292 293 295 297 299 300 302 303 304 305 307 308 307 305 305 306 306 306 307 307 307 307 306 306 306 306 305 305 304 304 303 302 301 302 302
279 279 279 279 280 282 285 289 292 294 296 296 295 293 292 291 290 290 290 289 287 283 281 281 281 281 282 284 284 283 282 281 282 284 284 284 284 284 284 283 282 281 281 283 286 287 289 290 291 292 294 296 298 300 302 304 305 305 306 307 307 307 306 305 305 306 306 306 306 306 306 306 305 305 305 305 304 304 303 303 302 301 301 301 301
276 275 276 277 280 284 287 291 294 296 297 297 295 293 291 290 289 289 288 287 285 283 281 280 281 282 283 283 282 280 279 280 280 281 281 282 282 281 280 280 280 281 283 286 287 289 290 291 293 295 298 301 303 304 305 305 306 306 306 307 306 306 305 305 306 306 305 306 305 305 305 305 305 304 304 304 303 302 302 301 301 300 300 300 300
273 274 276 279 282 286 289 291 294 296 297 296 294 292 290 288 287 286 286 285 284 283 282 282 283 282 281 278 276 276 277 279 281 281 281 280 279 278 278 280 282 284 286 288 290 292 293 295 298 300 302 303 305 305 305 306 305 306 306 305 305 305 305 305 305 305 305 305 305 305 305 304 303 303 302 302 301 300 300 299 299 298 298 298 298
273 276 279 282 285 287 289 291 293 295 296 295 293 290 288 286 285 284 284 284 283 283 283 282 281 279 277 276 277 278 280 282 281 280 278 277 278 279 282 284 286 289 291 293 295 296 298 300 301 302 303 303 304 304 304 304 304 304 305 305 304 304 304 304 305 305 304 304 304 304 304 303 302 302 301 300 299 299 298 297 297 297 297 297 297
277 280 282 284 286 288 290 292 294 295 295 293 291 288 286 285 284 284 283 283 282 281 279 277 276 276 277 277 278 279 279 279 278 277 278 280 283 285 288 290 292 294 295 297 298 298 299 300 301 301 302 302 303 303 303 303 303 303 303 304 304 304 304 304 305 304 304 304 304 303 303 303 302 301 300 299 299 298 297 296 296 296 296 296 297
280 282 284 286 288 290 291 293 294 294 293 291 289 287 285 284 283 283 283 282 281 280 279 278 277 276 276 276 276 276 276 277 278 280 283 285 287 289 291 292 294 295 296 297 297 298 299 299 300 301 301 302 302 302 302 302 303 303 303 303 303 304 304 304 304 304 304 304 303 303 302 302 301 300 300 299 298 298 297 296 296 296 296 297 297
282 284 286 288 290 292 293 294 294 293 291 288 286 284 283 283 283 282 282 281 280 279 277 276 275 275 275 275 276 278 279 281 282 284 285 286 288 289 291 292 294 295 296 297 297 298 299 300 300 301 301 301 302 302 302 302 302 302 303 303 303 304 304 304 303 303 303 303 302 302 301 300 300 299 298 298 297 296 296 296 296 296 296 296 296
285 287 289 291 293 294 294 293 292 291 289 287 285 284 283 282 282 281 281 280 279 277 275 274 274 274 276 277 278 279 280 281 282 283 285 286 288 289 291 292 293 295 296 297 298 299 300 300 301 301 302 302 302 302 302 302 302 303 303 303 304 303 303 303 303 302 302 301 301 300 300 299 298 298 297 297 296 296 296 296 296 296 296 296 296
289 291 292 293 293 293 292 290 289 287 286 284 283 282 281 281 281 281 281 281 281 281 280 279 278 278 278 278 278 279 280 281 283 284 286 287 289 290 292 293 295 296 298 299 299 300 301 301 302 302 302 302 302 302 302 303 303 303 304 303 303 303 303 302 302 301 301 300 300 299 299 298 298 298 297 297 296 296 296 295 295 295 295 295 295
292 293 293 292 291 290 288 286 285 283 281 280 280 279 279 280 281 282 283 284 284 284 283 282 281 281 280 280 281 282 283 284 285 287 288 289 291 292 294 295 297 298 298 299 300 300 301 301 301 301 302 302 302 303 303 303 304 304 304 304 303 303 302 301 301 300 300 299 299 299 299 298 298 298 297 297 296 296 295 295 295 295 295 295 295
291 290 289 288 286 285 284 282 281 280 279 279 279 280 281 282 283 284 285 285 285 285 284 284 283 283 283 283 284 285 286 287 288 289 291 292 293 294 295 296 297 298 299 300 300 301 301 301 301 302 302 302 303 303 304 304 304 304 304 303 303 302 301 301 300 300 300 299 299 299 299 299 299 299 298 298 298 297 297 296 296 295 295 295 294
287 286 285 284 284 283 283 282 281 281 281 282 283 284 284 285 286 286 286 286 286 286 285 285 285 285 285 286 286 287 288 289 290 292 293 294 295 296 296 297 298 299 300 300 300 300 301 301 301 302 303 303 304 304 304 304 304 304 303 303 302 302 301 300 300 300 300 300 300 300 299 299 299 299 298 298 297 297 297 296 296 295 295 294 294
285 285 285 284 284 284 283 283 283 283 284 284 285 286 287 287 287 287 287 287 286 286 286 286 286 286 287 287 288 289 290 291 292 293 294 295 296 297 298 299 299 300 300 300 300 301 301 301 302 302 303 303 304 304 304 304 304 303 302 302 301 301 300 300 300 299 299 300 300 299 299 299 298 298 297 297 296 296 295 295 294 294 294 294 294
284 283 283 283 283 283 283 283 284 284 285 285 286 286 287 287 287 286 286 286 286 286 286 286 287 287 288 289 290 291 292 293 294 295 296 297 298 299 299 299 300 300 300 301 301 302 302 303 303 304 304 304 304 304 304 304 303 302 302 301 301 300 300 300 300 300 300 300 300 300 299 299 298 298 298 297 296 296 295 294 294 293 293 293 293
282 282 282 283 283 283 283 283 284 284 285 285 285 285 285 285 285 285 286 286 286 286 287 287 288 289 289 290 291 292 293 295 296 296 297 298 299 299 300 300 300 301 301 302 302 303 304 304 305 305 305 305 305 305 304 304 303 302 302 301 301 301 301 300 300 300 301 301 301 301 300 300 300 299 299 298 298 297 296 295 294 294 293 293 293
281 281 282 282 282 282 282 283 283 284 284 285 285 285 285 285 285 286 286 286 287 287 288 288 289 290 291 292 293 294 295 296 297 297 298 298 299 299 300 301 301 302 303 303 304 305 305 306 306 306 306 306 306 305 304 304 303 303 302 302 302 302 301 301 301 301 302 302 302 301 301 301 301 301 300 300 299 298 297 296 295 295 294 293 292
280 280 280 281 281 282 283 284 284 285 285 284 285 285 285 285 286 286 286 287 287 288 289 290 291 292 293 294 295 296 296 297 297 298 298 299 300 300 301 302 303 304 305 306 306 307 307 307 307 307 307 306 306 305 305 304 303 303 303 303 302 302 302 302 302 302 303 303 302 302 302 302 302 301 301 300 300 299 298 298 297 296 294 293 292
279 279 280 281 282 283 284 284 284 284 284 284 285 285 285 285 286 286 287 287 288 289 291 292 293 294 295 296 296 296 297 297 298 298 299 300 301 302 303 304 306 307 308 308 308 309 308 308 308 308 307 307 306 306 305 305 304 304 304 303 303 303 302 303 303 303 304 304 303 303 303 303 302 302 302 301 301 300 300 299 297 296 294 293 291
279 281 282 283 283 283 283 283 283 283 284 284 284 284 285 285 286 287 288 289 290 291 292 294 295 296 296 297 297 297 297 298 299 300 300 301 302 304 306 307 309 309 310 310 310 310 310 309 309 308 308 307 307 307 306 305 305 304 304 303 303 303 303 304 304 305 305 305 305 304 304 304 304 304 304 303 303 302 301 300 298 296 294 292 290
281 282 282 283 282 282 282 282 282 283 283 284 284 285 286 286 287 288 290 291 292 293 294 295 296 296 297 297 297 298 298 299 300 301 302 303 304 306 308 310 311 311 312 312 311 311 310 309 309 308 308 308 308 307 306 306 305 304 304 304 304 304 304 305 305 306 306 306 305 306 306 306 307 306 306 306 306 305 304 302 300 298 296 293 291
281 281 281 281 281 280 281 281 282 283 283 284 285 286 287 288 289 290 291 293 294 295 295 296 296 297 297 297 298 298 299 300 301 302 303 305 307 309 310 312 312 313 313 313 312 312 311 309 309 309 309 309 309 308 307 306 305 305 305 304 304 305 305 306 306 306 306 306 307 308 309 309 309 310 310 310 309 308 306 304 302 300 298 294 291
280 280 279 279 279 280 281 282 283 283 284 285 286 287 289 290 291 292 293 294 295 295 296 296 296 297 297 298 298 299 300 301 302 303 305 307 309 310 312 313 314 314 314 314 313 312 311 310 310 310 310 310 309 308 307 306 306 305 305 305 306 306 306 306 306 306 306 307 309 311 312 313 313 313 313 313 312 311 310 308 306 303 300 295 291
278 278 279 279 280 281 282 283 284 285 286 287 288 289 290 291 292 293 294 295 295 296 296 296 297 297 298 298 299 300 301 302 303 305 306 308 310 311 312 313 314 315 315 314 313 312 311 311 311 311 311 310 309 308 307 306 306 306 306 306 306 307 307 307 307 307 308 310 313 315 316 316 316 316 316 315 316 316 315 314 312 310 306 300 295
278 279 280 281 282 283 284 285 286 286 287 288 289 290 291 292 293 294 295 295 295 295 296 296 297 298 298 299 299 300 301 303 304 306 307 308 309 311 312 314 315 315 315 315 314 312 312 312 312 312 311 310 309 308 307 307 307 307 307 307 307 307 307 307 307 308 310 313 317 319 319 319 319 319 319 319 321 322 322 322 322 322 319 312 305
279 280 281 282 283 284 285 286 286 287 288 288 289 290 292 293 293 294 294 294 294 295 296 297 297 298 299 299 300 301 302 303 305 306 307 308 309 311 312 314 315 316 316 315 314 313 313 313 312 311 311 309 308 307 307 307 307 307 307 307 307 308 308 307 307 309 312 317 320 322 322 321 322 323 323 323 326 328 328 330 333 337 337 335 330
280 281 281 282 283 284 285 286 286 287 288 289 290 291 292 293 293 293 293 293 294 295 296 296 297 298 299 299 300 301 302 303 304 305 307 308 309 311 312 314 315 316 316 315 313 313 313 313 311 310 309 308 308 307 307 307 307 307 307 307 308 307 306 305 306 310 315 319 322 324 325 325 326 327 327 328 330 332 334 337 342 347 352 356 359
281 281 282 283 284 284 285 286 286 287 289 290 291 292 292 292 292 292 292 293 294 295 295 296 297 297 298 299 300 302 303 303 304 305 306 308 309 311 312 314 315 316 315 314 313 313 313 312 310 309 308 307 307 307 307 307 307 308 307 307 307 306 304 303 306 311 316 320 324 326 327 328 329 330 331 332 334 336 339 343 347 352 359 6 10
281 282 283 284 284 284 285 286 287 288 290 291 292 292 291 291 291 291 292 293 294 295 295 296 296 297 298 299 300 302 302 303 304 305 307 308 309 311 312 314 315 315 314 313 313 312 311 310 308 307 306 306 306 306 307 307 308 308 308 307 305 303 300 302 306 311 316 320 324 328 330 331 332 334 335 335 336 339 341 343 346 349 354 1 6
282 282 283 283 284 284 285 287 288 290 291 291 291 290 290 290 291 292 292 293 294 295 295 296 296 297 298 299 300 301 302 303 304 305 307 308 309 311 312 314 315 314 313 312 312 311 310 308 306 305 304 304 305 306 306 307 307 308 308 306 303 299 297 300 305 309 314 319 324 328 331 334 335 337 338 339 339 340 341 343 346 351 358 11 28
281 281 282 282 283 285 286 288 289 290 290 290 290 290 290 291 291 292 293 293 294 295 295 296 297 297 298 299 300 301 302 302 304 305 307 308 309 311 312 314 314 313 312 311 311 309 308 306 304 303 303 303 304 305 305 305 306 307 307 304 299 295 295 299 304 307 310 315 321 326 331 335 337 340 343 345 346 347 350 353 358 6 14 22 29
279 280 281 282 284 285 287 288 288 289 289 289 290 290 291 291 292 292 293 293 294 295 295 296 297 298 299 300 301 301 302 303 304 305 306 308 309 311 312 313 313 311 310 310 309 307 305 303 302 301 302 303 304 305 305 304 305 306 306 302 295 291 293 298 302 305 307 310 316 322 328 332 335 338 342 345 347 350 353 355 358 2 3 360 355
278 279 281 283 284 285 286 287 287 288 288 289 289 290 290 291 291 292 292 293 294 294 295 296 297 298 299 300 301 301 302 302 303 304 306 307 309 311 312 312 311 310 309 308 307 304 302 301 300 300 301 302 303 304 305 303 303 305 305 299 291 287 290 295 299 301 302 305 310 316 321 326 329 331 334 338 340 342 344 346 347 348 347 344 344
Height
5770 5770 5769 5768 5768 5767 5766 5765 5764 5763 5762 5761 5760 5758 5757 5756 5755 5754 5753 5752 5751 5750 5749 5748 5747 5745 5744 5743 5741 5740 5738 5737 5735 5733 5731 5729 5727 5724 5722 5719 5716 5714 5711 5708 5705 5702 5699 5696 5693 5690 5687 5684 5681 5678 5675 5671 5668 5664 5661 5657 5654 5651 5646 5642 5638 5633 5626 5620 5617 5614 5610 5606 5601 5597 5593 5588 5583 5580 5576 5571 5566 5561 5555 5549 5543
5765 5764 5764 5763 5762 5761 5761 5760 5759 5758 5757 5755 5754 5753 5751 5750 5749 5748 5747 5746 5745 5744 5743 5742 5740 5739 5738 5736 5734 5733 5731 5730 5728 5726 5724 5721 5719 5717 5714 5712 5710 5707 5704 5701 5698 5695 5692 5689 5686 5682 5679 5676 5672 5669 5665 5661 5658 5655 5651 5648 5645 5641 5637 5632 5629 5625 5619 5612 5607 5603 5600 5596 5592 5587 5583 5579 5574 5571 5566 5561 5557 5551 5545 5539 5534
5759 5758 5758 5757 5756 5755 5755 5754 5753 5752 5751 5749 5748 5746 5745 5744 5743 5742 5741 5740 5739 5738 5737 5736 5734 5733 5731 5729 5728 5726 5724 5723 5721 5718 5716 5714 5712 5709 5707 5705 5702 5699 5696 5693 5690 5687 5685 5681 5678 5674 5671 5667 5664 5660 5655 5651 5648 5645 5642 5639 5636 5632 5628 5624 5619 5616 5612 5606 5599 5594 5590 5586 5582 5577 5573 5569 5566 5562 5558 5553 5548 5542 5536 5531 5526
5753 5753 5752 5751 5750 5749 5748 5747 5746 5745 5744 5743 5742 5740 5739 5738 5737 5736 5735 5734 5733 5732 5731 5729 5727 5726 5724 5722 5721 5719 5717 5715 5713 5711 5709 5707 5704 5703 5700 5697 5695 5692 5689 5686 5683 5680 5676 5673 5669 5666 5662 5659 5655 5650 5646 5641 5638 5636 5633 5630 5627 5623 5618 5614 5610 5607 5603 5598 5592 5587 5582 5577 5573 5568 5563 5561 5557 5553 5549 5545 5540 5534 5528 5523 5519
5747 5747 5746 5745 5744 5743 5742 5741 5740 5739 5738 5737 5735 5734 5733 5732 5731 5730 5729 5728 5727 5726 5724 5723 5721 5719 5717 5715 5714 5712 5710 5708 5706 5704 5702 5700 5698 5696 5693 5690 5687 5685 5682 5679 5675 5672 5668 5664 5661 5658 5654 5650 5645 5641 5636 5632 5629 5628 5625 5622 5618 5614 5610 5605 5601 5597 5593 5589 5585 5579 5574 5569 5565 5560 5554 5552 5549 5544 5540 5536 5530 5525 5520 5516 5511
5741 5740 5739 5739 5738 5737 5736 5735 5733 5733 5732 5731 5730 5729 5728 5727 5726 5724 5723 5722 5721 5719 5718 5716 5714 5712 5710 5708 5706 5704 5702 5700 5698 5697 5695 5693 5691 5688 5686 5683 5680 5678 5674 5671 5667 5663 5660 5656 5653 5649 5645 5641 5637 5632 5628 5624 5621 5619 5616 5613 5610 5605 5601 5596 5592 5588 5584 5580 5576 5571 5566 5562 5557 5552 5547 5543 5540 5536 5532 5528 5523 5517 5513 5509 5505
5734 5734 5733 5732 5731 5730 5729 5728 5727 5726 5726 5725 5724 5723 5722 5721 5720 5718 5717 5715 5714 5713 5711 5709 5707 5705 5703 5701 5699 5697 5695 5693 5691 5690 5688 5686 5683 5681 5678 5676 5673 5670 5666 5663 5659 5655 5651 5648 5644 5640 5636 5632 5628 5623 5619 5615 5612 5610 5607 5605 5602 5597 5592 5587 5582 5578 5574 5571 5567 5562 5558 5554 5549 5543 5538 5534 5530 5526 5522 5519 5516 5511 5506 5503 5498
5728 5727 5727 5726 5725 5724 5723 5722 5721 5720 5719 5719 5718 5717 5716 5715 5713 5712 5710 5709 5708 5706 5705 5703 5701 5699 5697 5695 5693 5690 5688 5686 5684 5682 5680 5678 5676 5673 5671 5668 5665 5662 5658 5654 5651 5646 5642 5639 5635 5631 5627 5623 5619 5614 5609 5606 5604 5601 5599 5596 5593 5589 5584 5578 5573 5568 5564 5561 5557 5553 5549 5545 5539 5533 5529 5525 5520 5516 5511 5508 5506 5503 5499 5495 5491
5722 5721 5720 5719 5718 5717 5716 5715 5715 5714 5713 5712 5711 5710 5709 5708 5707 5705 5704 5702 5701 5700 5698 5696 5694 5693 5691 5688 5686 5684 5681 5679 5677 5674 5672 5670 5668 5665 5663 5660 5657 5653 5650 5646 5642 5638 5634 5631 5627 5623 5619 5614 5609 5604 5600 5597 5595 5593 5590 5587 5584 5579 5575 5570 5564 5559 5555 5551 5548 5543 5540 5536 5529 5523 5520 5515 5510 5506 5501 5498 5496 5493 5490 5487 5483
5716 5715 5714 5713 5712 5711 5710 5709 5708 5707 5706 5705 5704 5703 5702 5701 5699 5698 5697 5695 5694 5693 5691 5689 5687 5686 5684 5681 5679 5676 5674 5671 5669 5666 5664 5662 5659 5657 5654 5651 5648 5645 5642 5637 5633 5629 5626 5622 5619 5614 5610 5605 5600 5595 5591 5588 5586 5584 5581 5578 5574 5570 5565 5561 5555 5550 5545 5541 5538 5534 5530 5527 5521 5514 5510 5506 5500 5496 5492 5488 5486 5484 5480 5478 5475
5709 5708 5707 5706 5705 5705 5704 5702 5701 5700 5700 5698 5697 5696 5695 5694 5692 5691 5690 5688 5687 5685 5683 5682 5680 5678 5676 5674 5671 5668 5666 5663 5660 5658 5656 5653 5651 5649 5646 5643 5640 5637 5633 5629 5624 5621 5617 5614 5610 5606 5601 5595 5591 5587 5583 5580 5577 5574 5571 5568 5564 5560 5555 5551 5546 5540 5535 5531 5529 5525 5520 5517 5512 5506 5501 5496 5491 5487 5483 5479 5476 5473 5470 5468 5466
5702 5701 5700 5699 5698 5698 5696 5695 5694 5693 5692 5691 5690 5689 5688 5687 5686 5684 5683 5682 5680 5678 5677 5675 5673 5670 5668 5666 5663 5660 5657 5654 5651 5649 5647 5645 5643 5641 5638 5635 5632 5629 5624 5620 5616 5612 5609 5605 5601 5596 5591 5587 5583 5579 5575 5571 5568 5565 5562 5558 5555 5550 5546 5541 5536 5529 5524 5522 5519 5516 5511 5506 5503 5498 5492 5486 5482 5478 5474 5470 5466 5462 5459 5457 5455
5695 5694 5693 5692 5692 5691 5689 5689 5688 5686 5685 5684 5683 5682 5681 5681 5679 5678 5677 5675 5673 5672 5670 5668 5665 5663 5660 5657 5654 5652 5648 5645 5643 5641 5639 5637 5635 5633 5630 5627 5624 5620 5616 5612 5608 5604 5600 5595 5591 5587 5583 5578 5575 5571 5566 5562 5558 5555 5552 5549 5546 5542 5537 5532 5525 5518 5514 5512 5509 5506 5501 5495 5492 5489 5483 5477 5473 5469 5465 5461 5457 5452 5448 5446 5444
5688 5687 5686 5686 5685 5684 5683 5682 5681 5680 5679 5678 5676 5676 5675 5674 5673 5671 5670 5668 5666 5665 5662 5660 5658 5655 5653 5650 5647 5644 5641 5638 5635 5633 5631 5629 5627 5625 5623 5619 5616 5611 5607 5603 5599 5595 5591 5586 5582 5579 5574 5569 5565 5561 5557 5553 5549 5545 5543 5540 5536 5532 5528 5523 5516 5510 5506 5502 5499 5496 5493 5486 5482 5480 5474 5468 5464 5460 5455 5452 5448 5442 5438 5435 5434
5681 5680 5679 5678 5678 5677 5677 5676 5675 5673 5672 5671 5670 5669 5668 5667 5666 5664 5663 5661 5659 5657 5654 5652 5650 5647 5645 5643 5639 5637 5633 5630 5627 5625 5623 5621 5618 5616 5614 5610 5606 5603 5599 5595 5590 5586 5582 5578 5574 5570 5565 5560 5555 5550 5546 5543 5540 5537 5534 5530 5526 5522 5518 5513 5506 5501 5497 5492 5489 5488 5485 5480 5474 5471 5466 5460 5456 5451 5446 5443 5440 5434 5429 5426 5424
5673 5672 5672 5671 5670 5670 5670 5669 5668 5667 5666 5665 5664 5662 5661 5659 5658 5656 5655 5653 5650 5648 5646 5644 5642 5640 5637 5634 5631 5629 5625 5621 5618 5617 5614 5612 5609 5607 5604 5601 5597 5594 5590 5586 5582 5577 5573 5569 5565 5560 5556 5551 5546 5540 5536 5532 5530 5527 5523 5520 5516 5512 5509 5503 5495 5489 5485 5481 5479 5477 5475 5471 5466 5462 5457 5452 5447 5442 5436 5433 5430 5424 5419 5416 5415
5665 5665 5664 5664 5663 5663 5663 5662 5661 5660 5658 5657 5656 5655 5653 5651 5650 5648 5646 5644 5642 5640 5638 5636 5634 5632 5629 5625 5623 5620 5616 5613 5610 5608 5605 5602 5599 5596 5594 5592 5589 5586 5582 5577 5573 5569 5565 5560 5556 5551 5547 5543 5537 5531 5526 5522 5519 5516 5512 5509 5505 5503 5501 5494 5484 5479 5475 5471 5469 5466 5463 5460 5455 5451 5447 5442 5437 5432 5427 5424 5421 5414 5409 5406 5405
5658 5658 5657 5656 5656 5655 5655 5654 5653 5652 5651 5650 5648 5647 5645 5643 5642 5640 5638 5636 5634 5632 5630 5628 5626 5624 5621 5618 5615 5612 5609 5605 5602 5599 5596 5592 5589 5586 5584 5582 5580 5577 5573 5569 5564 5560 5556 5552 5547 5542 5538 5533 5528 5522 5517 5511 5508 5505 5500 5497 5494 5492 5490 5483 5475 5471 5467 5463 5460 5456 5452 5449 5444 5439 5436 5431 5425 5419 5416 5414 5410 5404 5399 5396 5394
5651 5651 5650 5649 5648 5648 5647 5646 5645 5644 5643 5642 5641 5639 5637 5635 5633 5631 5629 5627 5625 5624 5622 5621 5618 5616 5613 5610 5607 5604 5600 5597 5593 5589 5586 5583 5579 5577 5574 5572 5570 5567 5564 5560 5556 5552 5547 5543 5537 5532 5528 5523 5518 5513 5507 5501 5497 5493 5489 5485 5483 5482 5479 5472 5467 5464 5460 5456 5452 5448 5444 5440 5434 5429 5425 5421 5415 5408 5404 5402 5399 5393 5389 5386 5383
5644 5643 5642 5642 5640 5640 5639 5638 5637 5636 5635 5634 5632 5631 5629 5627 5625 5623 5621 5619 5617 5616 5614 5612 5610 5608 5605 5602 5599 5596 5592 5588 5584 5580 5577 5573 5570 5567 5564 5562 5561 5558 5555 5553 5549 5544 5538 5533 5528 5523 5518 5513 5508 5502 5496 5491 5486 5482 5479 5475 5472 5471 5467 5462 5458 5455 5451 5448 5445 5440 5436 5432 5426 5420 5415 5411 5406 5400 5394 5390 5387 5383 5378 5376 5373
5637 5635 5634 5634 5633 5632 5631 5630 5629 5628 5626 5625 5624 5622 5620 5618 5616 5614 5612 5610 5609 5607 5605 5604 5601 5599 5596 5593 5590 5587 5583 5579 5575 5571 5568 5564 5561 5558 5555 5553 5551 5549 5547 5544 5540 5535 5529 5524 5519 5513 5507 5502 5497 5491 5486 5481 5476 5472 5470 5466 5462 5459 5455 5451 5449 5445 5441 5438 5434 5430 5427 5423 5417 5412 5406 5401 5397 5391 5385 5380 5377 5373 5370 5366 5363
5629 5628 5627 5627 5626 5625 5624 5622 5621 5619 5618 5616 5614 5612 5611 5609 5607 5605 5604 5602 5600 5598 5596 5594 5592 5589 5586 5583 5580 5577 5574 5571 5567 5563 5559 5556 5552 5549 5547 5544 5541 5539 5537 5535 5529 5524 5519 5513 5508 5503 5497 5492 5487 5482 5478 5473 5467 5463 5461 5457 5453 5449 5445 5441 5439 5436 5431 5428 5424 5420 5417 5413 5407 5403 5397 5392 5387 5382 5377 5372 5368 5365 5362 5358 5355
5622 5621 5620 5619 5618 5616 5615 5614 5612 5611 5609 5607 5606 5604 5602 5600 5598 5596 5594 5592 5591 5589 5587 5585 5583 5580 5577 5574 5571 5568 5565 5562 5558 5555 5551 5548 5544 5541 5538 5535 5531 5527 5525 5522 5517 5511 5506 5502 5497 5493 5489 5484 5480 5475 5470 5465 5460 5456 5452 5448 5443 5439 5434 5430 5427 5424 5420 5417 5413 5409 5406 5402 5396 5392 5388 5383 5378 5373 5369 5364 5359 5356 5353 5349 5346
5614 5613 5611 5610 5609 5608 5606 5605 5604 5602 5600 5598 5596 5594 5592 5590 5589 5586 5585 5583 5581 5579 5578 5576 5573 5571 5568 5565 5562 5560 5556 5553 5550 5546 5543 5539 5535 5531 5527 5523 5519 5515 5512 5509 5505 5500 5495 5492 5488 5484 5480 5476 5472 5468 5463 5459 5454 5449 5444 5439 5434 5430 5425 5420 5416 5411 5407 5404 5400 5396 5393 5389 5384 5379 5376 5372 5367 5363 5359 5355 5350 5346 5342 5339 5336
5605 5604 5602 5601 5600 5599 5598 5597 5595 5593 5591 5589 5587 5585 5583 5581 5579 5577 5575 5573 5571 5569 5568 5566 5564 5561 5559 5556 5554 5551 5547 5544 5540 5537 5534 5529 5525 5520 5516 5512 5507 5504 5501 5497 5494 5490 5486 5483 5479 5475 5471 5467 5463 5459 5455 5451 5446 5441 5436 5431 5426 5420 5415 5410 5405 5399 5395 5391 5387 5382 5380 5376 5371 5367 5363 5360 5355 5352 5347 5343 5339 5335 5332 5328 5325
5596 5595 5594 5593 5592 5590 5589 5587 5585 5583 5582 5579 5577 5576 5573 5571 5569 5567 5566 5564 5562 5560 5559 5557 5555 5553 5550 5547 5545 5541 5538 5534 5530 5527 5524 5520 5515 5511 5507 5502 5498 5494 5491 5487 5484 5480 5477 5473 5470 5466 5462 5458 5454 5450 5446 5442 5437 5432 5427 5421 5416 5411 5405 5400 5394 5389 5383 5379 5374 5370 5366 5363 5358 5355 5351 5348 5344 5341 5336 5331 5328 5324 5321 5317 5314
5588 5586 5585 5584 5582 5581 5579 5577 5575 5573 5571 5570 5568 5566 5564 5562 5560 5558 5557 5555 5553 5552 5550 5548 5546 5544 5541 5538 5535 5532 5529 5525 5521 5518 5514 5510 5506 5502 5498 5494 5489 5485 5482 5478 5474 5470 5466 5463 5459 5455 5451 5447 5443 5439 5436 5432 5427 5422 5417 5411 5405 5400 5394 5389 5383 5377 5372 5367 5363 5359 5355 5351 5347 5343 5340 5336 5333 5329 5325 5320 5316 5313 5309 5305 5303
5578 5577 5576 5574 5572 5570 5569 5567 5565 5563 5561 5560 5558 5556 5554 5553 5551 5549 5548 5546 5544 5543 5541 5539 5537 5534 5532 5529 5526 5523 5519 5515 5512 5508 5504 5501 5497 5493 5489 5485 5481 5477 5473 5469 5465 5461 5457 5453 5449 5445 5442 5438 5433 5429 5425 5420 5416 5411 5406 5400 5394 5388 5383 5377 5371 5365 5360 5355 5351 5347 5343 5339 5336 5332 5328 5325 5322 5318 5313 5309 5305 5302 5297 5294 5292
5569 5567 5566 5564 5562 5561 5559 5557 5556 5554 5552 5551 5549 5548 5546 5544 5542 5541 5539 5537 5536 5533 5531 5529 5527 5525 5522 5520 5516 5513 5510 5506 5502 5498 5495 5491 5487 5483 5479 5476 5472 5468 5464 5460 5456 5453 5449 5445 5440 5436 5432 5428 5423 5419 5414 5409 5405 5400 5394 5388 5382 5376 5371 5365 5360 5354 5349 5343 5339 5335 5331 5327 5324 5321 5317 5314 5311 5307 5302 5298 5294 5290 5286 5283 5281
5559 5558 5556 5555 5553 5552 5550 5548 5547 5545 5543 5542 5540 5538 5537 5535 5534 5532 5530 5528 5526 5524 5522 5519 5517 5514 5512 5509 5506 5503 5499 5496 5492 5489 5485 5481 5478 5474 5471 5467 5464 5460 5455 5451 5447 5444 5440 5436 5431 5427 5422 5418 5413 5408 5403 5398 5393 5388 5383 5376 5370 5365 5359 5354 5348 5343 5338 5333 5328 5324 5320 5316 5312 5309 5305 5301 5298 5294 5289 5285 5281 5277 5273 5270 5268
5550 5548 5547 5545 5543 5542 5540 5538 5537 5535 5533 5532 5530 5528 5527 5525 5524 5522 5520 5518 5516 5514 5512 5509 5506 5504 5501 5499 5496 5493 5489 5486 5483 5479 5476 5472 5469 5465 5462 5459 5455 5451 5446 5442 5438 5435 5431 5427 5422 5417 5413 5408 5403 5398 5393 5387 5382 5376 5371 5365 5359 5353 5348 5343 5338 5333 5328 5323 5319 5314 5310 5306 5302 5298 5294 5290 5286 5283 5278 5273 5268 5264 5260 5257 5255
5539 5537 5536 5534 5533 5531 5530 5528 5527 5525 5524 5522 5521 5519 5517 5515 5513 5512 5510 5508 5506 5504 5501 5499 5497 5494 5491 5489 5486 5483 5480 5477 5474 5470 5467 5463 5459 5455 5452 5449 5445 5441 5436 5432 5428 5424 5420 5416 5412 5407 5402 5397 5392 5387 5382 5376 5370 5365 5360 5355 5349 5343 5338 5333 5329 5324 5319 5315 5310 5306 5301 5297 5292 5288 5284 5279 5276 5272 5269 5264 5258 5253 5249 5245 5243
5528 5527 5525 5524 5523 5521 5520 5519 5517 5516 5515 5513 5511 5509 5508 5506 5504 5502 5500 5498 5497 5494 5492 5490 5487 5485 5482 5479 5476 5474 5471 5468 5465 5461 5457 5453 5449 5445 5441 5438 5435 5431 5426 5422 5418 5413 5409 5404 5400 5395 5391 5386 5381 5375 5370 5364 5359 5353 5348 5344 5339 5334 5329 5324 5319 5314 5309 5305 5300 5295 5291 5286 5281 5277 5273 5268 5264 5261 5257 5253 5248 5243 5238 5235 5232
5519 5517 5516 5514 5513 5512 5510 5509 5508 5506 5505 5504 5502 5500 5498 5496 5495 5493 5491 5489 5487 5485 5482 5480 5478 5475 5473 5470 5467 5464 5461 5458 5455 5451 5447 5443 5439 5436 5432 5428 5425 5422 5417 5413 5408 5403 5398 5393 5388 5384 5379 5373 5368 5363 5357 5352 5347 5342 5337 5332 5328 5323 5318 5313 5308 5304 5299 5294 5289 5284 5279 5274 5269 5265 5261 5257 5252 5248 5245 5241 5237 5232 5228 5224 5222
5509 5508 5506 5505 5504 5502 5501 5500 5498 5497 5496 5494 5492 5491 5489 5487 5485 5483 5481 5479 5477 5475 5473 5470 5468 5466 5463 5461 5458 5455 5452 5448 5445 5442 5438 5434 5430 5426 5423 5418 5415 5411 5407 5403 5398 5393 5388 5383 5377 5372 5367 5361 5356 5351 5346 5341 5336 5330 5325 5321 5316 5312 5307 5302 5297 5293 5288 5283 5278 5272 5267 5262 5257 5252 5248 5244 5240 5236 5233 5229 5225 5221 5217 5214 5211
5500 5498 5497 5496 5494 5493 5492 5490 5489 5487 5486 5484 5483 5481 5479 5478 5476 5474 5472 5470 5468 5466 5463 5461 5459 5456 5454 5451 5448 5445 5442 5439 5436 5432 5429 5425 5421 5417 5414 5410 5406 5401 5396 5392 5387 5382 5377 5371 5366 5360 5355 5349 5344 5339 5334 5330 5325 5320 5315 5310 5305 5301 5296 5291 5287 5282 5277 5272 5267 5262 5257 5252 5247 5242 5237 5233 5229 5225 5221 5218 5214 5210 5207 5203 5201
5491 5490 5488 5487 5486 5484 5483 5481 5479 5478 5476 5475 5473 5472 5470 5469 5467 5465 5463 5461 5458 5456 5454 5452 5449 5447 5444 5441 5438 5435 5432 5429 5426 5423 5420 5416 5412 5408 5404 5401 5396 5392 5386 5381 5375 5370 5365 5360 5354 5349 5344 5338 5333 5328 5323 5319 5314 5309 5304 5299 5294 5290 5285 5281 5276 5272 5267 5262 5257 5251 5246 5242 5237 5232 5228 5224 5220 5215 5211 5207 5204 5200 5197 5193 5191
5483 5481 5480 5478 5477 5476 5474 5472 5470 5469 5467 5466 5464 5463 5461 5459 5457 5456 5454 5451 5449 5447 5445 5442 5440 5437 5434 5431 5428 5425 5423 5420 5417 5414 5410 5407 5403 5400 5395 5391 5387 5382 5377 5371 5365 5359 5353 5348 5343 5338 5333 5328 5323 5318 5313 5308 5303 5298 5293 5288 5283 5279 5275 5271 5266 5261 5256 5252 5247 5242 5237 5232 5227 5223 5219 5214 5210 5206 5202 5197 5193 5190 5187 5183 5180
5473 5472 5471 5470 5469 5467 5465 5464 5462 5460 5459 5457 5456 5454 5452 5450 5448 5446 5444 5442 5440 5438 5436 5433 5431 5428 5425 5422 5418 5416 5414 5411 5408 5404 5401 5398 5394 5390 5386 5382 5377 5372 5367 5361 5355 5349 5343 5337 5333 5328 5323 5318 5313 5307 5302 5297 5292 5287 5283 5278 5274 5269 5265 5261 5256 5251 5247 5242 5238 5233 5229 5224 5219 5214 5210 5206 5201 5197 5192 5187 5183 5179 5177 5173 5171
5465 5463 5462 5461 5460 5458 5457 5455 5454 5452 5450 5449 5447 5445 5443 5441 5439 5437 5435 5433 5431 5429 5427 5424 5422 5419 5416 5413 5409 5406 5404 5401 5398 5395 5391 5388 5384 5380 5376 5372 5367 5362 5357 5351 5345 5339 5333 5328 5323 5318 5313 5308 5302 5297 5292 5287 5282 5277 5273 5269 5264 5260 5256 5252 5248 5243 5238 5234 5230 5226 5222 5217 5212 5207 5202 5197 5193 5188 5183 5178 5174 5170 5167 5165 5163
5456 5454 5453 5452 5451 5450 5449 5447 5445 5444 5442 5440 5438 5436 5434 5432 5430 5428 5426 5424 5422 5420 5418 5415 5413 5410 5408 5404 5400 5397 5394 5392 5388 5385 5382 5378 5375 5371 5366 5361 5356 5351 5346 5340 5334 5328 5323 5318 5313 5308 5303 5298 5293 5287 5282 5277 5272 5268 5263 5259 5256 5252 5248 5244 5240 5236 5232 5228 5225 5221 5216 5210 5205 5200 5195 5190 5185 5180 5175 5171 5166 5163 5160 5158 5157
5447 5445 5445 5443 5442 5441 5440 5438 5437 5435 5433 5431 5429 5428 5425 5424 5422 5420 5418 5415 5413 5411 5409 5406 5404 5402 5399 5396 5392 5389 5385 5382 5379 5375 5372 5369 5365 5361 5356 5351 5346 5341 5336 5330 5324 5318 5313 5307 5303 5298 5293 5288 5283 5277 5273 5268 5264 5259 5255 5251 5247 5244 5240 5236 5233 5229 5226 5223 5219 5215 5210 5204 5199 5194 5189 5184 5179 5174 5170 5165 5161 5158 5155 5154 5153
5438 5437 5436 5435 5434 5433 5431 5430 5428 5426 5424 5423 5421 5419 5417 5415 5413 5411 5409 5407 5404 5402 5400 5397 5395 5393 5390 5387 5384 5380 5377 5373 5370 5366 5363 5359 5355 5351 5346 5341 5336 5331 5326 5320 5314 5308 5302 5297 5292 5287 5283 5278 5273 5268 5264 5260 5255 5251 5247 5243 5239 5236 5233 5230 5227 5224 5221 5218 5215 5210 5205 5200 5194 5189 5184 5180 5175 5171 5167 5162 5159 5156 5153 5152 5151
5430 5429 5428 5427 5426 5424 5423 5421 5420 5418 5416 5414 5412 5410 5409 5407 5404 5402 5400 5398 5396 5393 5391 5389 5386 5384 5381 5378 5375 5372 5368 5365 5361 5357 5353 5349 5345 5341 5336 5331 5326 5321 5315 5310 5304 5298 5293 5287 5282 5277 5273 5269 5264 5260 5256 5252 5248 5244 5240 5236 5233 5230 5227 5225 5222 5220 5217 5214 5210 5206 5201 5196 5191 5186 5181 5177 5173 5169 5165 5162 5159 5156 5154 5152 5151
5422 5421 5420 5419 5417 5416 5414 5413 5411 5409 5408 5406 5404 5402 5400 5398 5396 5394 5392 5390 5387 5385 5383 5380 5378 5375 5372 5369 5366 5363 5359 5356 5352 5348 5344 5340 5336 5331 5326 5321 5315 5310 5304 5299 5295 5289 5284 5278 5272 5268 5264 5260 5256 5253 5249 5245 5241 5238 5234 5230 5227 5224 5222 5220 5218 5216 5214 5210 5206 5202 5198 5193 5188 5183 5179 5176 5172 5168 5165 5162 5160 5157 5156 5154 5153
5414 5413 5412 5410 5409 5407 5406 5404 5402 5401 5399 5397 5395 5394 5392 5390 5388 5386 5383 5381 5379 5377 5374 5371 5369 5366 5363 5360 5357 5353 5350 5347 5343 5339 5335 5331 5326 5322 5316 5311 5305 5299 5294 5289 5285 5280 5275 5269 5264 5260 5255 5252 5249 5245 5242 5239 5235 5232 5228 5225 5222 5219 5217 5216 5214 5213 5210 5207 5203 5200 5195 5191 5186 5182 5178 5175 5172 5168 5166 5163 5161 5159 5158 5156 5155
5406 5404 5403 5402 5400 5399 5397 5396 5394 5392 5391 5389 5387 5385 5383 5381 5379 5377 5375 5373 5370 5368 5365 5362 5359 5356 5354 5350 5347 5344 5341 5337 5333 5329 5325 5321 5317 5312 5307 5301 5296 5290 5284 5279 5275 5270 5266 5261 5256 5252 5248 5244 5241 5238 5235 5232 5229 5226 5222 5220 5217 5215 5213 5212 5211 5209 5207 5204 5201 5197 5193 5189 5185 5181 5178 5175 5172 5169 5167 5165 5163 5161 5160 5159 5158
5397 5396 5395 5393 5392 5390 5389 5387 5386 5384 5382 5380 5378 5376 5374 5372 5370 5368 5366 5363 5361 5358 5356 5353 5350 5347 5344 5341 5338 5335 5331 5328 5324 5320 5315 5311 5307 5302 5297 5292 5286 5280 5275 5270 5266 5261 5257 5252 5248 5245 5241 5238 5235 5232 5229 5226 5223 5220 5217 5214 5212 5210 5209 5208 5207 5206 5204 5201 5199 5195 5192 5188 5185 5181 5178 5175 5172 5170 5168 5166 5164 5163 5162 5160 5160
5389 5387 5386 5385 5383 5382 5381 5379 5377 5375 5373 5371 5369 5367 5365 5363 5361 5359 5356 5354 5351 5349 5346 5343 5340 5337 5334 5331 5328 5325 5321 5318 5314 5309 5305 5301 5297 5292 5288 5282 5277 5271 5266 5261 5256 5252 5248 5245 5241 5238 5234 5231 5228 5226 5223 5220 5218 5215 5212 5209 5207 5206 5205 5204 5203 5202 5200 5199 5196 5194 5191 5188 5184 5181 5179 5176 5174 5171 5169 5167 5166 5165 5163 5162 5162
5380 5379 5378 5377 5375 5374 5372 5370 5368 5366 5364 5362 5360 5358 5356 5354 5352 5349 5347 5344 5342 5339 5336 5333 5331 5328 5324 5321 5318 5315 5311 5307 5303 5299 5295 5291 5287 5282 5278 5272 5267 5262 5256 5252 5247 5243 5240 5237 5234 5231 5228 5225 5222 5220 5217 5215 5212 5210 5207 5205 5203 5202 5201 5200 5200 5198 5197 5196 5194 5192 5189 5187 5184 5182 5179 5177 5175 5173 5171 5169 5168 5166 5165 5164 5163
5372 5371 5369 5368 5366 5365 5363 5361 5359 5357 5355 5353 5351 5349 5347 5345 5342 5340 5337 5335 5332 5329 5326 5324 5321 5317 5314 5311 5308 5304 5301 5297 5293 5289 5285 5281 5277 5272 5268 5262 5257 5252 5247 5242 5238 5235 5231 5229 5226 5224 5221 5219 5216 5214 5211 5209 5206 5204 5202 5200 5199 5198 5197 5197 5196 5195 5194 5192 5191 5190 5188 5186 5183 5181 5179 5177 5175 5174 5172 5170 5169 5168 5166 5165 5164